{"data":{"norad_id":59569,"epoch":"2026-05-25T03:16:56.667072Z","epoch_age_seconds":66293,"freshness":"FRESH","line1":"1 59569U 24076F   26145.13676698  .00001373  00000+0  59444-4 0  9990","line2":"2 59569  43.0039 293.8697 0002391 279.9504  80.1078 15.27576353118143","mean_motion":15.27576353,"eccentricity":0.0002391,"inclination_deg":43.0039,"raan_deg":293.8697,"arg_perigee_deg":279.9504,"mean_anomaly_deg":80.1078,"bstar":5.9444e-5,"rev_number":11814,"period_min":94.26697377005,"perigee_km":481.41950428474,"apogee_km":484.70052869802,"semimajor_km":6861.1970164914,"source":"CELESTRAK","updated_at":"2026-05-25T13:38:18.985493Z"}}